FW2510 Weather Reports


time (UTC)temp
C
wind
direction
speed
KPH
gust
KPH
rain 1hr
cm
rain 24hr
cm
rain mn
cm
humidity
%
barometer
mb
20260508184528 20 190 0.0 11.3 0.00 0.23 0.03 35 1016.6
20260508183028 20 128 1.6 14.5 0.00 0.23 0.03 35 1016.8
20260508181559 20 301 0.0 9.7 0.00 0.23 0.03 33 1016.8
20260508180054 20 246 1.6 9.7 0.00 0.28 0.03 30 1016.9
20260508174520 20 101 0.0 4.8 0.00 0.28 0.03 33 1017.0
20260508173023 18 124 0.0 6.4 0.00 0.28 0.03 36 1017.3
20260508171549 19 208 3.2 8.0 0.00 0.28 0.03 34 1017.5
20260508170050 19 207 0.0 14.5 0.00 0.30 0.03 36 1017.7
20260508164517 19 255 0.0 11.3 0.00 0.30 0.03 36 1018.1
20260508163019 19 213 3.2 9.7 0.00 0.30 0.03 32 1018.1
20260508161511 18 191 0.0 4.8 0.00 0.30 0.03 33 1018.4
20260508160008 18 223 1.6 6.4 0.00 0.36 0.03 36 1018.5
20260508154508 18 122 1.6 11.3 0.00 0.36 0.03 35 1018.6
20260508153007 18 84 0.0 6.4 0.00 0.36 0.03 35 1018.8
20260508151505 17 209 0.0 9.7 0.00 0.36 0.03 39 1018.7
20260508150004 17 113 0.0 4.8 0.00 0.41 0.03 37 1018.6
20260508144501 17 132 0.0 4.8 0.00 0.41 0.03 39 1018.8
20260508143104 17 355 0.0 6.4 0.00 0.41 0.03 40 1018.9
20260508141549 17 112 0.0 3.2 0.00 0.41 0.03 43 1019.0
20260508140025 16 101 0.0 9.7 0.00 0.43 0.03 45 1019.0
20260508134523 16 58 0.0 3.2 0.00 0.43 0.03 48 1018.9
20260508133018 16 82 0.0 4.8 0.00 0.43 0.03 49 1018.7
20260508131516 16 16 0.0 3.2 0.00 0.43 0.03 49 1018.8
20260508130016 16 17 0.0 3.2 0.00 0.48 0.03 49 1018.6
20260508124511 15 109 0.0 0.0 0.00 0.48 0.03 54 1018.6
20260508123007 13 360 0.0 0.0 0.00 0.48 0.03 57 1018.4
20260508121603 13 346 0.0 0.0 0.00 0.48 0.03 59 1018.3
20260508120058 11 327 0.0 0.0 0.00 0.53 0.03 61 1018.0
20260508114557 10 304 0.0 1.6 0.00 0.53 0.03 63 1017.9
20260508113105 10 304 0.0 1.6 0.00 0.53 0.03 63 1017.5
20260508111551 10 304 0.0 0.0 0.00 0.53 0.03 64 1017.4
20260508110053 9 304 0.0 0.0 0.00 0.61 0.03 65 1017.2
20260508104546 9 304 0.0 0.0 0.00 0.61 0.03 64 1016.9
20260508103016 9 304 0.0 0.0 0.00 0.61 0.03 64 1016.6
20260508101518 9 304 0.0 0.0 0.00 0.61 0.03 65 1016.4
20260508100038 10 304 0.0 0.0 0.00 0.69 0.03 65 1016.2
20260508094538 10 304 0.0 0.0 0.00 0.69 0.03 66 1016.2
20260508093036 10 304 0.0 0.0 0.00 0.69 0.03 65 1016.1
20260508091541 10 304 0.0 1.6 0.00 0.69 0.03 64 1016.1
20260508090038 10 304 0.0 3.2 0.00 0.81 0.03 64 1015.8
20260508084529 10 313 0.0 3.2 0.00 0.81 0.03 64 1015.8
20260508083112 10 312 0.0 4.8 0.03 0.81 0.03 64 1015.7
20260508081603 10 355 0.0 0.0 0.03 0.81 0.03 65 1015.5
20260508080053 10 355 0.0 0.0 0.03 0.97 0.03 66 1015.4
20260508074554 11 355 0.0 0.0 0.03 0.97 0.03 66 1015.3
20260508073050 11 355 0.0 0.0 0.00 0.94 0.00 65 1015.2
20260508071548 11 355 0.0 0.0 0.00 0.94 0.00 65 1015.1
20260508070044 11 355 0.0 0.0 0.00 1.12 0.00 65 1015.2
20260508064544 11 355 0.0 0.0 0.00 1.12 0.00 64 1014.9
20260508063041 11 355 0.0 0.0 0.00 1.12 0.00 63 1014.8
20260508061538 12 355 0.0 0.0 0.00 1.12 0.00 62 1014.9
20260508060033 12 355 0.0 0.0 0.00 1.30 1.12 61 1014.9
20260508054533 12 355 0.0 0.0 0.00 1.30 1.12 60 1015.0
20260508053034 12 355 0.0 0.0 0.00 1.30 1.12 59 1014.9
20260508051529 12 355 0.0 0.0 0.00 1.30 1.12 59 1014.8
20260508050027 13 355 0.0 1.6 0.00 1.50 1.12 58 1014.6
20260508044524 13 355 0.0 0.0 0.00 1.50 1.12 57 1014.5
20260508043020 13 355 0.0 0.0 0.00 1.50 1.12 56 1014.4
20260508041519 13 355 0.0 0.0 0.00 1.50 1.12 56 1014.3
20260508040050 14 355 0.0 0.0 0.00 1.83 1.12 57 1014.3
20260508034545 14 355 0.0 0.0 0.00 1.83 1.12 58 1014.3
20260508033041 15 355 0.0 0.0 0.00 1.83 1.12 58 1014.2
20260508031538 15 355 0.0 0.0 0.00 1.83 1.12 57 1014.1
20260508030042 16 355 0.0 0.0 0.00 2.24 1.12 55 1014.1
20260508024538 16 355 0.0 0.0 0.00 2.24 1.12 54 1013.9
20260508023029 16 355 0.0 0.0 0.00 2.24 1.12 50 1013.7
20260508021532 16 355 0.0 0.0 0.03 2.24 1.12 48 1013.5
20260508020023 17 323 0.0 6.4 0.03 2.69 1.12 47 1013.3
20260508014524 17 18 1.6 9.7 0.03 2.69 1.12 46 1013.2
20260508013031 17 302 0.0 4.8 0.03 2.69 1.12 48 1012.5
20260508011519 17 336 0.0 3.2 0.00 2.67 1.09 52 1012.4
20260508010017 17 346 1.6 6.4 0.00 3.07 1.09 55 1012.2
20260508004531 17 333 3.2 6.4 0.00 3.07 1.09 60 1011.9
20260508003012 17 253 0.0 3.2 0.00 3.07 1.09 60 1011.7
20260508001517 17 23 1.6 8.0 0.00 3.07 1.09 62 1011.1
20260508000010 17 355 1.6 8.0 0.00 3.28 1.09 63 1010.9
20260507234510 18 360 0.0 4.8 0.00 3.28 1.09 64 1010.4
20260507233015 18 59 0.0 4.8 0.00 3.28 1.09 63 1010.6
20260507231545 18 32 1.6 9.7 0.03 3.28 1.09 63 1010.0
20260507230038 19 5 1.6 16.1 0.03 3.28 1.09 63 1009.5
20260507224508 20 55 1.6 9.7 0.03 3.28 1.09 61 1009.1
20260507223008 22 333 3.2 9.7 0.03 3.28 1.09 57 1008.6
20260507221513 23 318 4.8 24.1 0.00 3.25 1.07 47 1007.9
20260507220005 23 216 0.0 6.4 0.00 3.25 1.07 52 1007.5
20260507214503 24 176 1.6 11.3 0.03 3.25 1.07 51 1007.6
20260507213003 25 207 3.2 24.1 0.03 3.25 1.07 50 1007.5
20260507211624 24 221 9.7 22.5 0.03 3.25 1.07 49 1007.3
20260507210100 25 252 4.8 17.7 0.05 3.25 1.07 48 1007.4
20260507204608 25 201 3.2 14.5 0.03 3.23 1.04 50 1007.3
20260507203102 25 111 6.4 17.7 0.05 3.23 1.04 49 1007.5
20260507201555 25 192 8.0 16.1 0.05 3.23 1.04 50 1007.3
20260507200055 25 191 4.8 14.5 0.05 3.20 1.02 48 1007.3
20260507194626 25 150 0.0 17.7 0.05 3.20 1.02 47 1007.5
20260507193052 25 122 3.2 11.3 0.05 3.17 0.99 47 1007.8
20260507191552 24 200 4.8 16.1 0.08 3.17 0.99 47 1008.0
20260507190043 23 201 6.4 19.3 0.08 3.15 0.97 49 1008.7